Wind_Speed
17 15 14 12 11 9 8 6 5 4 3 3 3 3 2 5 11 16 20 21 21 21 21 21 20 19 19 19 18 19 20 21 22 24 25 25 26 25 24 24 26 26
21 19 17 16 14 13 11 9 7 6 6 5 3 3 3 5 9 13 16 18 19 19 19 19 20 19 19 19 19 19 20 21 22 23 24 25 24 24 25 24 25 25
24 22 21 19 18 16 13 11 10 9 7 5 3 2 2 3 5 7 9 12 14 16 17 18 19 20 20 20 19 20 20 20 21 22 23 23 22 22 23 24 24 24
26 24 23 22 20 18 16 15 13 12 10 8 6 5 3 1 1 2 4 6 9 12 14 16 17 17 18 18 18 19 20 19 20 21 21 21 20 21 22 22 22 23
28 27 25 24 22 21 19 19 18 16 14 13 11 8 6 3 1 1 2 4 5 7 10 11 12 13 13 14 15 15 16 18 19 20 20 20 21 21 21 21 22 22
29 28 27 26 25 23 22 22 21 19 18 17 15 13 11 8 5 3 1 2 4 5 7 8 9 10 11 12 13 14 15 17 18 18 20 21 21 21 20 20 22 22
28 28 27 27 26 25 24 23 22 21 20 19 18 17 16 13 11 8 6 3 1 3 5 7 8 9 10 11 12 13 15 17 17 18 19 20 21 21 21 21 22 23
27 27 27 26 26 26 25 24 23 22 20 19 18 18 17 17 16 14 11 9 6 3 1 3 6 8 9 10 10 11 13 14 16 17 18 19 19 19 20 22 22 23
27 27 26 26 26 26 25 24 23 22 20 19 18 17 16 16 16 15 14 12 11 9 7 5 3 3 4 6 8 9 10 11 12 13 15 16 16 15 16 19 22 23
26 27 27 27 26 26 25 25 24 23 21 20 19 17 16 16 15 14 13 13 12 12 11 10 9 7 5 3 3 5 7 8 9 10 11 12 13 13 13 15 20 22
23 25 26 26 26 26 25 25 25 23 22 21 20 18 17 16 15 15 14 14 13 12 11 10 9 9 7 6 5 4 4 4 6 8 9 11 12 13 12 13 15 18
21 22 24 25 25 24 25 25 25 24 24 23 21 19 18 17 17 16 15 14 14 13 12 10 9 9 8 7 7 6 6 5 5 5 6 8 9 11 13 14 15 15
18 19 21 23 23 23 24 25 25 25 24 24 22 21 19 18 17 17 15 15 14 13 12 11 10 9 9 8 8 9 9 8 7 7 6 6 6 8 9 12 14 15
16 17 19 21 22 23 24 25 25 25 24 24 23 21 19 18 18 17 16 15 14 14 13 12 10 10 9 8 10 11 12 11 9 9 8 7 6 7 7 8 9 11
14 16 17 18 21 22 23 24 24 24 24 24 23 22 20 19 18 17 16 16 15 15 14 12 11 10 9 9 12 14 13 12 10 9 9 8 8 8 9 9 8 8
12 13 14 15 17 19 20 21 21 22 23 23 23 21 20 20 18 17 17 17 17 17 15 14 12 11 9 9 12 14 14 12 11 10 9 9 9 10 10 11 11 11
10 11 12 13 14 16 18 19 19 20 21 22 22 20 20 20 18 16 17 18 18 17 16 15 13 13 12 11 12 14 14 13 12 11 10 10 10 9 9 9 10 12
9 10 11 12 13 15 17 18 19 20 20 21 21 19 19 19 16 14 17 19 18 18 17 16 15 14 12 12 13 15 15 14 13 12 11 11 10 10 9 8 9 9
8 9 10 11 12 14 16 18 19 19 19 20 20 18 19 19 14 13 18 20 18 19 18 17 16 14 12 12 15 16 14 14 13 12 11 10 10 11 11 11 11 10
8 9 10 11 12 13 15 18 17 17 19 19 17 18 19 17 12 13 19 20 18 18 19 18 17 14 11 12 15 15 15 15 13 12 11 11 11 11 11 11 11 11
8 9 10 12 14 14 17 18 16 17 20 18 15 16 17 14 12 15 19 20 19 18 18 19 18 13 11 14 16 16 16 16 14 12 11 11 10 10 11 12 12 12
9 9 10 12 13 15 18 17 15 18 20 17 15 16 14 12 13 16 19 19 19 19 19 19 18 14 12 15 16 17 17 15 14 13 12 10 10 10 10 11 11 10
10 9 10 10 11 13 14 14 14 17 17 16 17 16 13 12 13 14 14 15 17 19 19 19 18 16 14 15 16 16 16 15 13 13 12 11 10 9 8 9 10 10
10 9 10 11 12 13 12 12 15 16 16 16 17 16 15 14 12 11 11 12 16 19 19 18 18 16 14 13 14 15 15 14 13 12 12 11 10 9 9 10 11 11
10 10 11 12 14 15 13 13 15 14 13 14 14 13 13 12 9 9 11 14 18 19 17 16 17 15 13 12 13 14 14 12 12 11 10 10 11 12 12 11 11 10
10 11 14 16 16 16 16 16 16 13 12 14 15 13 11 10 10 12 15 18 18 17 17 16 15 15 14 13 13 14 13 12 11 10 11 11 12 13 12 11 10 10
Wind_Direction
72 73 70 65 63 56 49 40 31 25 10 350 332 316 283 243 242 237 232 234 238 240 242 241 237 232 229 229 231 235 238 241 242 242 241 240 241 241 239 239 242 244
66 69 72 71 69 68 67 67 64 58 45 30 9 344 329 291 271 258 248 245 247 248 248 244 237 232 231 234 236 238 238 239 241 241 242 243 243 242 240 241 243 244
62 63 65 64 63 65 68 71 73 70 61 53 40 4 340 312 297 289 275 265 259 255 252 248 243 238 236 238 241 242 242 241 241 243 245 244 240 239 241 243 243 242
59 60 61 61 61 61 64 67 66 62 57 50 43 36 28 343 265 272 278 276 268 261 258 255 252 249 249 249 248 247 246 245 245 245 246 245 243 244 247 249 248 247
59 59 60 60 61 60 61 62 60 57 55 51 48 47 45 43 42 217 227 240 252 256 259 262 262 261 259 257 255 253 251 250 249 249 248 248 250 250 251 251 251 250
59 58 58 58 59 60 59 57 56 56 55 52 51 51 51 50 47 41 41 228 232 237 244 251 258 261 263 262 259 256 253 252 252 251 250 249 251 251 249 248 248 249
58 58 57 56 56 57 56 54 53 53 54 53 51 51 52 52 51 51 49 41 279 248 247 250 253 255 258 260 261 259 255 255 255 254 252 251 250 251 251 248 246 247
56 56 55 54 53 53 51 50 48 47 48 50 49 47 48 49 50 52 54 54 51 37 327 281 269 264 263 260 260 262 261 259 259 257 254 252 251 251 252 251 250 248
54 53 52 51 50 48 46 44 43 42 41 43 43 41 42 43 45 47 50 52 54 53 48 38 16 320 287 273 266 263 261 262 263 260 257 254 252 251 252 254 254 253
51 50 49 48 46 43 41 40 39 37 35 36 36 35 34 35 35 37 39 41 43 43 43 42 41 41 34 6 315 284 270 265 261 258 256 255 254 253 252 254 257 256
47 46 45 44 43 40 38 37 35 33 31 31 30 29 28 26 25 25 25 26 25 24 25 27 28 31 33 34 27 10 341 304 279 266 259 255 254 254 252 251 255 256
41 41 41 40 39 36 34 33 31 29 28 27 25 24 23 20 19 18 16 16 13 11 10 9 9 11 11 13 12 4 357 348 334 315 290 274 264 259 256 253 253 253
38 37 36 36 34 32 31 29 27 25 24 22 20 20 18 14 13 12 10 8 5 2 2 359 357 357 354 355 356 350 342 337 338 339 332 317 296 278 268 261 256 254
35 33 32 31 29 28 27 25 23 22 20 18 15 15 14 10 7 5 3 2 359 357 355 353 353 352 351 353 353 347 340 331 328 327 325 322 313 299 286 275 267 260
32 31 29 26 24 24 22 19 18 16 15 13 11 11 8 4 1 359 357 356 354 352 350 348 349 348 352 357 351 343 336 328 321 315 310 306 302 299 291 281 275 267
26 25 23 20 19 18 15 14 12 10 9 8 6 6 3 359 356 354 353 351 348 346 345 344 343 338 338 344 340 335 332 326 316 305 299 294 291 290 287 283 278 273
20 17 16 13 12 10 8 7 5 4 3 2 1 0 356 354 352 348 347 346 343 340 340 338 335 331 328 328 329 331 328 321 312 304 296 290 285 282 280 280 281 281
12 10 8 5 3 2 0 360 358 357 357 355 354 353 349 348 348 340 339 341 339 336 335 332 330 326 322 323 327 328 325 318 309 301 293 289 285 280 280 282 284 286
3 1 359 357 356 352 352 352 351 351 351 349 348 345 342 343 339 329 332 336 335 334 332 328 326 323 320 325 327 325 324 321 312 299 291 290 288 283 282 283 286 289
348 348 347 346 346 344 344 346 344 343 344 344 340 337 337 337 328 320 327 331 332 332 328 325 324 322 319 323 324 322 322 321 313 304 297 291 288 286 284 285 288 288
333 333 334 334 335 335 336 338 337 336 339 339 333 330 331 327 317 316 322 327 329 328 325 321 321 321 316 317 320 320 320 317 311 306 300 289 285 287 287 289 289 287
321 319 321 325 327 328 329 332 330 330 334 334 327 324 322 316 312 315 318 322 325 325 324 320 319 318 312 312 316 318 317 314 307 302 298 289 285 288 288 288 288 287
314 310 312 315 319 322 323 324 324 326 328 327 323 320 315 310 310 311 312 315 318 322 323 319 317 318 315 311 315 317 315 312 304 297 292 286 284 286 288 288 287 287
309 304 304 307 311 314 315 317 320 321 321 321 319 315 310 308 308 306 305 308 313 318 320 317 314 315 314 312 315 317 315 311 304 295 291 289 287 289 292 292 287 285
306 301 302 307 309 309 310 314 316 316 315 315 313 308 304 306 306 304 305 310 314 316 317 314 312 310 307 309 314 316 314 311 305 300 301 304 299 295 295 292 287 287
308 303 305 308 309 310 311 313 314 312 309 310 309 304 299 301 306 307 309 312 314 314 314 312 308 304 303 305 311 313 310 308 307 304 305 306 300 295 294 290 286 287
Height
786 787 788 789 789 790 791 792 793 793 794 795 795 796 796 796 796 797 798 799 800 801 802 803 804 805 806 806 807 808 809 810 811 813 814 814 814 815 816 817 818 820
789 789 789 790 791 791 792 792 793 794 794 795 795 796 796 796 797 797 798 799 800 800 801 802 803 804 805 805 806 807 807 809 810 811 811 812 812 813 814 815 816 818
792 792 792 792 793 793 793 793 794 794 795 795 795 796 796 796 797 797 798 798 799 799 800 801 802 803 804 804 805 806 807 807 808 809 809 809 810 811 812 813 814 815
795 795 795 795 795 795 795 795 795 795 796 796 796 796 796 796 796 797 797 798 798 799 799 800 800 801 802 803 803 804 805 806 806 807 807 808 808 809 810 811 811 812
799 799 799 799 798 798 798 797 797 797 798 798 798 797 797 797 797 796 797 797 797 798 799 799 800 800 801 801 801 802 802 803 804 804 805 806 806 807 808 809 809 810
803 802 802 802 801 801 800 800 800 800 799 800 799 799 798 797 797 797 797 796 796 797 797 798 799 799 799 799 799 800 800 801 802 802 803 803 804 804 805 806 806 807
807 806 805 805 805 804 803 803 803 802 802 802 801 801 800 799 798 797 797 797 796 797 797 797 797 797 798 798 798 798 798 799 800 800 801 801 802 802 802 803 804 804
810 809 809 808 807 807 806 805 805 804 804 804 803 803 802 801 800 799 798 798 797 797 796 796 796 796 797 797 797 797 797 797 798 798 799 799 800 800 800 800 801 801
813 812 811 811 810 809 809 808 808 807 806 805 805 804 804 803 802 801 800 799 798 798 797 797 796 796 796 796 796 796 796 796 796 797 797 797 798 798 798 798 798 799
815 814 814 813 812 812 811 811 810 809 808 807 806 806 805 804 803 802 801 800 799 799 798 797 797 796 796 795 795 795 795 795 795 795 795 795 796 796 796 796 796 796
817 817 816 815 815 814 813 813 812 811 810 809 808 807 806 805 804 803 802 801 800 799 799 798 797 797 796 796 795 795 795 794 794 794 794 794 794 794 794 794 794 795
819 818 818 817 817 816 815 814 813 813 811 810 809 808 807 806 805 804 803 802 801 800 799 798 798 797 796 796 795 795 794 794 793 793 792 792 792 792 792 792 792 792
821 820 820 819 818 817 817 816 815 814 813 812 811 809 808 807 806 805 804 803 802 801 800 799 798 797 796 796 795 795 794 793 793 792 792 791 790 790 790 790 789 790
823 822 821 820 820 819 818 817 816 815 814 813 812 811 810 808 807 806 805 804 803 802 800 799 798 797 796 795 795 794 794 793 792 792 791 790 790 789 788 788 788 788
824 823 822 822 821 820 819 818 817 816 815 814 813 812 811 809 808 807 805 804 803 802 801 799 798 797 796 795 795 795 794 793 792 791 790 790 789 788 788 787 787 787
825 824 824 823 821 821 820 818 818 817 815 814 813 812 811 809 808 807 805 804 803 801 800 799 798 797 796 795 795 795 794 793 791 791 790 789 788 787 787 786 786 785
826 825 824 823 822 821 820 819 818 817 815 814 813 812 811 809 808 807 805 804 802 801 799 798 797 796 795 794 794 794 793 792 791 790 789 788 787 786 786 785 784 784
826 825 825 823 822 821 820 819 818 816 815 814 812 812 810 809 808 806 805 803 802 800 799 797 796 795 794 793 793 792 792 791 789 788 787 786 786 785 784 784 783 782
826 825 824 823 822 821 819 818 817 816 815 813 812 811 809 808 807 805 804 802 801 799 798 796 795 794 793 792 792 791 790 789 788 786 785 785 784 783 783 782 781 780
826 825 824 823 822 820 819 818 816 815 814 812 811 810 808 807 806 804 803 801 800 798 796 795 794 792 791 791 791 790 789 788 786 785 783 783 782 781 781 780 779 779
825 824 823 822 821 819 818 817 815 814 813 811 810 809 807 806 804 803 801 799 798 797 795 793 792 791 790 790 789 788 787 786 784 783 782 781 780 780 779 778 778 777
824 823 822 821 819 818 817 816 815 813 812 810 809 807 806 805 803 801 799 798 796 795 793 792 791 790 789 788 787 786 785 784 783 781 780 779 778 777 777 776 776 775
823 822 821 820 818 817 816 815 813 812 811 809 807 806 804 803 801 800 798 796 795 793 792 790 789 788 787 786 785 785 784 783 781 780 779 777 776 776 775 774 774 773
822 821 820 818 817 816 815 813 812 811 809 808 806 804 803 801 800 798 797 795 793 792 790 789 787 786 785 784 784 783 782 781 779 778 777 775 774 774 773 772 771 770
821 820 818 817 816 814 813 812 810 809 808 806 805 803 801 800 798 797 795 794 792 790 789 787 785 784 783 783 782 781 781 779 778 776 775 774 773 772 771 770 769 768
820 818 817 815 814 812 811 810 809 807 806 804 803 802 800 799 797 795 793 791 790 788 787 785 784 782 781 781 780 779 779 778 777 775 774 773 772 770 769 768 767 766